Saint Francisville, IL

10:01 AM CST on January 21, 2017 (GMT -0600)
Mount Carmel

Weather History for KAJG - January, 2013

Change the Weather History Date:

Wednesday, January 9, 2013

  Actual Average (KLWV) Record (KLWV)
Temperature  
Mean Temperature 42 °F -  
Max Temperature 50 °F 36 °F 52 °F (2002)
Min Temperature 33 °F 21 °F -2 °F (1999)
Degree Days  
Heating Degree Days 24    
Moisture  
Dew Point 37 °F    
Average Humidity 88    
Maximum Humidity 100    
Minimum Humidity 70    
Precipitation  
Precipitation 0.14 in - - ()
Sea Level Pressure  
Sea Level Pressure 30.38 in    
Wind  
Wind Speed 4 mph (WSW)    
Max Wind Speed 10 mph    
Max Gust Speed -    
Visibility 6 miles    
Events Fog , Rain    
Averages and records for this station are not official NWS values.
T = Trace of Precipitation, MM = Missing Value Source: NWS Daily Summary

Daily Weather History Graph

Daily Weather History Graph

Search for Another Location

Airport or City:

Trip Planner

Search our weather history database for the weather conditions in past years. The results will help you decide how hot, cold, wet, or windy it might be!

Date:

Astronomy

Jan. 09, 2013 Rise Set
Actual Time 7:08 AM CST 4:47 PM CST
Civil Twilight 6:39 AM CST 5:17 PM CST
Nautical Twilight 6:06 AM CST 5:50 PM CST
Astronomical Twilight 5:34 AM CST 6:22 PM CST
Moon 4:47 AM CST (1/9) 2:49 PM CST (1/9)
Length of Visible Light 10h 38m
Length of Day
9h 39m
Waning Crescent, 6% of the Moon is Illuminated
Jan 9
Waning Crescent
Jan 11
New
Jan 18
First Quarter
Jan 26
Full
Feb 3
Last Quarter

Hourly Weather History & Observations

Time (CST) Temp. Windchill Dew Point Humidity Pressure Visibility Wind Dir Wind Speed Gust Speed Precip Events Conditions
12:15 AM 39.2 °F 35.9 °F 33.8 °F 81% 30.20 in 10.0 mi South 4.6 mph - N/A   Overcast
12:35 AM 41.0 °F 38.0 °F 33.8 °F 76% 30.21 in 10.0 mi South 4.6 mph - N/A   Overcast
12:55 AM 42.8 °F 37.5 °F 33.8 °F 70% 30.22 in 10.0 mi South 9.2 mph - N/A   Overcast
1:15 AM 41.0 °F 35.8 °F 33.8 °F 76% 30.22 in 10.0 mi South 8.1 mph - N/A   Overcast
1:35 AM 41.0 °F 35.2 °F 33.8 °F 76% 30.22 in 10.0 mi South 9.2 mph - N/A   Overcast
1:55 AM 42.8 °F 38.6 °F 33.8 °F 70% 30.24 in 10.0 mi SW 6.9 mph - N/A   Overcast
2:15 AM 41.0 °F 39.0 °F 33.8 °F 76% 30.24 in 10.0 mi WSW 3.5 mph - N/A   Overcast
2:35 AM 41.0 °F 35.8 °F 33.8 °F 76% 30.25 in 10.0 mi West 8.1 mph - N/A   Overcast
2:55 AM 37.4 °F 32.1 °F 33.8 °F 87% 30.26 in 10.0 mi West 6.9 mph - N/A Rain Light Rain
3:15 AM 39.2 °F 34.2 °F 35.6 °F 87% 30.26 in 7.0 mi West 6.9 mph - 0.01 in Rain Rain
3:35 AM 39.2 °F 33.6 °F 35.6 °F 87% 30.27 in 7.0 mi WNW 8.1 mph - 0.04 in Rain Rain
3:55 AM 39.2 °F 34.2 °F 37.4 °F 93% 30.27 in 10.0 mi West 6.9 mph - 0.05 in Rain Rain
4:15 AM 39.2 °F 34.2 °F 37.4 °F 93% 30.29 in 4.0 mi SW 6.9 mph - N/A Rain Rain
4:35 AM 41.0 °F 35.2 °F 37.4 °F 87% 30.28 in 4.0 mi WSW 9.2 mph - 0.01 in   Light Drizzle
4:55 AM 39.2 °F 33.6 °F 37.4 °F 93% 30.29 in 4.0 mi WSW 8.1 mph - 0.01 in Rain Rain
5:15 AM 39.2 °F 32.5 °F 37.4 °F 93% 30.29 in 4.0 mi WSW 10.4 mph - 0.01 in Rain Light Rain
5:35 AM 41.0 °F 35.2 °F 39.2 °F 93% 30.30 in 5.0 mi WSW 9.2 mph - 0.01 in Rain Light Rain
5:55 AM 41.0 °F 37.1 °F 39.2 °F 93% 30.30 in 2.5 mi WSW 5.8 mph - 0.01 in Rain Light Rain
6:15 AM 39.2 °F - 37.4 °F 93% 30.30 in 0.8 mi Calm Calm - 0.01 in Rain Rain
6:55 AM 39.2 °F 37.0 °F 37.4 °F 93% 30.32 in 1.0 mi WSW 3.5 mph - 0.02 in   Overcast
7:15 AM 39.2 °F 35.9 °F 37.4 °F 93% 30.33 in 2.0 mi WSW 4.6 mph - 0.01 in   Overcast
7:35 AM 39.2 °F 37.0 °F 37.4 °F 93% 30.34 in 0.2 mi WNW 3.5 mph - 0.02 in Fog Fog
7:55 AM 41.0 °F - 39.2 °F 93% 30.36 in 0.2 mi Calm Calm - 0.03 in Fog Fog
8:15 AM 41.0 °F - 39.2 °F 93% 30.36 in 0.2 mi Calm Calm - 0.01 in Fog Fog
8:35 AM 39.2 °F - 37.4 °F 93% 30.37 in 0.2 mi Calm Calm - 0.01 in Fog Fog
8:55 AM 41.0 °F - 39.2 °F 93% 30.38 in 0.2 mi Calm Calm - 0.02 in Fog Fog
9:15 AM 39.2 °F - 37.4 °F 93% 30.39 in 0.2 mi Calm Calm - N/A Fog Fog
9:35 AM 41.0 °F - 41.0 °F 100% 30.39 in 0.2 mi Calm Calm - N/A Fog Fog
9:55 AM 41.0 °F - 41.0 °F 100% 30.39 in 0.2 mi Calm Calm - N/A Fog Fog
10:15 AM 41.0 °F 36.4 °F 39.2 °F 93% 30.40 in 0.8 mi WSW 6.9 mph - N/A   Mist
10:35 AM 41.0 °F 36.4 °F 41.0 °F 100% 30.40 in 4.0 mi West 6.9 mph - N/A   Clear
10:55 AM 41.0 °F 37.1 °F 39.2 °F 93% 30.39 in 4.0 mi WSW 5.8 mph - N/A   Clear
11:15 AM 42.8 °F 39.3 °F 41.0 °F 93% 30.39 in 7.0 mi WSW 5.8 mph - N/A   Clear
11:35 AM 44.6 °F 43.1 °F 42.8 °F 93% 30.38 in 10.0 mi West 3.5 mph - N/A   Clear
12:15 PM 42.8 °F 41.1 °F 41.0 °F 93% 30.38 in 10.0 mi West 3.5 mph - N/A   Clear
12:35 PM 44.6 °F - 41.0 °F 87% 30.38 in 10.0 mi Calm Calm - N/A   Clear
12:55 PM 44.6 °F - 41.0 °F 87% 30.39 in 10.0 mi Calm Calm - N/A   Clear
1:15 PM 44.6 °F - 41.0 °F 87% 30.39 in 10.0 mi Calm Calm - N/A   Clear
1:35 PM 46.4 °F - 42.8 °F 87% 30.39 in 10.0 mi Calm Calm - N/A   Clear
1:55 PM 48.2 °F - 42.8 °F 82% 30.39 in 10.0 mi Calm Calm - N/A   Clear
2:15 PM 48.2 °F - 42.8 °F 82% 30.40 in 10.0 mi Calm Calm - N/A   Clear
2:35 PM 48.2 °F - 42.8 °F 82% 30.40 in 10.0 mi Calm Calm - N/A   Clear
2:55 PM 50.0 °F - 42.8 °F 76% 30.41 in 10.0 mi Calm Calm - N/A   Clear
3:15 PM 50.0 °F - 42.8 °F 76% 30.41 in 10.0 mi Calm Calm - N/A   Clear
3:35 PM 48.2 °F - 42.8 °F 82% 30.42 in 10.0 mi Calm Calm - N/A   Clear
3:55 PM 46.4 °F - 42.8 °F 87% 30.42 in 10.0 mi Calm Calm - N/A   Clear
4:15 PM 46.4 °F - 41.0 °F 81% 30.43 in 7.0 mi Calm Calm - N/A   Clear
4:35 PM 42.8 °F - 35.6 °F 76% 30.44 in 10.0 mi Calm Calm - N/A   Clear
4:55 PM 41.0 °F - 37.4 °F 87% 30.44 in 5.0 mi Calm Calm - N/A   Clear
5:15 PM 39.2 °F - 37.4 °F 93% 30.44 in 5.0 mi Calm Calm - N/A   Clear
5:35 PM 41.0 °F - 37.4 °F 87% 30.44 in 7.0 mi Calm Calm - N/A   Clear
6:15 PM 37.4 °F - 37.4 °F 100% 30.46 in 5.0 mi Calm Calm - N/A   Clear
6:35 PM 35.6 °F - 33.8 °F 93% 30.47 in 7.0 mi Calm Calm - N/A   Clear
6:55 PM 35.6 °F - 33.8 °F 93% 30.48 in 7.0 mi Calm Calm - N/A   Clear
7:15 PM 35.6 °F - 33.8 °F 93% 30.48 in 3.0 mi Calm Calm - N/A   Clear
7:35 PM 35.6 °F - 35.6 °F 100% 30.49 in 2.5 mi Calm Calm - N/A   Clear
7:55 PM 37.4 °F - 35.6 °F 93% 30.49 in 1.8 mi Calm Calm - N/A   Mist
8:35 PM 33.8 °F - 32.0 °F 93% 30.49 in 4.0 mi Calm Calm - N/A   Clear
8:55 PM 33.8 °F - 32.0 °F 93% 30.49 in 5.0 mi Calm Calm - N/A   Clear
9:15 PM 33.8 °F - 33.8 °F 100% 30.49 in 5.0 mi Calm Calm - N/A   Clear
9:35 PM 37.4 °F 32.1 °F 35.6 °F 93% 30.48 in 10.0 mi NE 6.9 mph - N/A   Clear
9:55 PM 41.0 °F 36.4 °F 35.6 °F 81% 30.50 in 10.0 mi NE 6.9 mph - N/A   Clear
10:15 PM 41.0 °F 37.1 °F 33.8 °F 76% 30.50 in 10.0 mi NE 5.8 mph - N/A   Clear
10:35 PM 37.4 °F 32.8 °F 35.6 °F 93% 30.50 in 10.0 mi NE 5.8 mph - N/A   Clear
10:55 PM 37.4 °F 34.9 °F 32.0 °F 81% 30.50 in 10.0 mi NE 3.5 mph - N/A   Clear
11:15 PM 35.6 °F 31.7 °F 33.8 °F 93% 30.50 in 10.0 mi NE 4.6 mph - N/A   Clear
11:35 PM 41.0 °F 37.1 °F 35.6 °F 81% 30.49 in 10.0 mi NE 5.8 mph - N/A   Clear
11:55 PM 41.0 °F 36.4 °F 35.6 °F 81% 30.49 in 10.0 mi NE 6.9 mph - N/A   Clear